EW9479 Weather Reports


Display with metric or nautical units.
time (UTC)temp
F
wind
direction
speed
MPH
gust
MPH
rain 1hr
in
rain 24hr
in
rain mn
in
humidity
%
barometer
mb
20260901134601 84 234 0.0 3.0 0.00 0.00 0.00 75 1021.0
20260901133052 82 0 0.0 1.0 0.00 0.00 0.00 79 1021.2
20260901131545 80 0 0.0 1.0 0.00 0.00 0.00 83 1021.3
20260901130052 75 134 0.0 1.0 0.00 0.00 0.00 92 1021.1
20260901124547 74 0 0.0 1.0 0.00 0.00 0.00 94 1020.9
20260901123046 73 0 0.0 0.0 0.00 0.00 0.00 94 1020.9
20260901121543 72 0 0.0 0.0 0.00 0.00 0.00 94 1020.8
20260901120112 72 0 0.0 0.0 0.00 0.00 0.00 93 1020.7
20260901114555 71 0 0.0 0.0 0.00 0.00 0.00 93 1020.5
20260901113050 71 0 0.0 0.0 0.00 0.00 0.00 93 1020.3
20260901111552 71 0 0.0 0.0 0.00 0.00 0.00 93 1020.0
20260901110049 71 0 0.0 0.0 0.00 0.00 0.00 93 1019.9
20260901104555 71 0 0.0 0.0 0.00 0.00 0.00 92 1019.9
20260901103050 72 0 0.0 0.0 0.00 0.00 0.00 92 1019.8
20260901101546 72 0 0.0 0.0 0.00 0.00 0.00 92 1019.7
20260901100046 72 0 0.0 0.0 0.00 0.00 0.00 92 1019.7
20260901094549 72 0 0.0 0.0 0.00 0.00 0.00 92 1019.6
20260901093047 72 0 0.0 0.0 0.00 0.00 0.00 91 1019.5
20260901091546 73 0 0.0 0.0 0.00 0.00 0.00 91 1019.6
20260901090043 73 0 0.0 0.0 0.00 0.00 0.00 91 1019.4
20260901084542 73 0 0.0 0.0 0.00 0.00 0.00 91 1019.4
20260901083046 73 0 0.0 0.0 0.00 0.00 0.00 91 1019.1
20260901081544 73 0 0.0 0.0 0.00 0.00 0.00 91 1019.2
20260901080045 73 0 0.0 0.0 0.00 0.00 0.00 91 1019.3
20260901074544 73 0 0.0 0.0 0.00 0.00 0.00 90 1019.1
20260901073044 73 0 0.0 0.0 0.00 0.00 0.00 90 1019.0
20260901071546 73 0 0.0 0.0 0.00 0.00 0.00 89 1019.1
20260901070044 74 0 0.0 0.0 0.00 0.00 0.00 89 1019.0
20260901064548 74 0 0.0 0.0 0.00 0.00 0.00 89 1018.9
20260901063045 74 0 0.0 0.0 0.00 0.00 0.00 89 1019.0
20260901061545 74 0 0.0 0.0 0.00 0.00 0.00 89 1019.1
20260901060045 74 0 0.0 0.0 0.00 0.00 0.00 88 1019.3
20260901054550 75 0 0.0 0.0 0.00 0.00 0.00 88 1019.3
20260901053114 75 0 0.0 0.0 0.00 0.00 0.00 87 1019.3
20260901051601 75 0 0.0 0.0 0.00 0.00 0.00 86 1019.2
20260901050045 76 0 0.0 0.0 0.00 0.00 0.00 86 1019.2
20260901044604 76 0 0.0 0.0 0.00 0.00 0.00 85 1019.2
20260901043045 77 0 0.0 0.0 0.00 0.00 0.00 83 1019.1
20260901041544 77 0 0.0 0.0 0.00 0.00 0.00 82 1019.1
20260901040110 78 0 0.0 0.0 0.00 0.00 0.00 81 1019.2
20260901034603 79 0 0.0 0.0 0.00 0.00 0.00 80 1019.1
20260901033046 79 0 0.0 0.0 0.00 0.00 0.00 79 1019.1
20260901031545 81 0 0.0 1.0 0.00 0.00 0.00 76 1019.2
20260901030045 81 201 0.0 1.0 0.00 0.00 0.00 76 1019.2
20260901024552 82 0 0.0 0.0 0.00 0.00 0.00 75 1019.1
20260901023058 83 0 0.0 0.0 0.00 0.00 0.00 74 1019.0
20260901021551 84 0 0.0 2.0 0.00 0.00 0.00 72 1018.8
20260901020050 83 0 0.0 0.0 0.00 0.00 0.00 73 1018.6
20260901014553 83 0 0.0 1.0 0.00 0.00 0.00 73 1018.5
20260901013043 82 0 0.0 0.0 0.00 0.00 0.00 74 1018.5
20260901011544 83 0 0.0 0.0 0.00 0.00 0.00 73 1018.2
20260901010047 84 0 0.0 0.0 0.00 0.00 0.00 71 1018.1
20260901004551 85 0 0.0 0.0 0.00 0.00 0.00 69 1018.0
20260901003044 87 0 0.0 1.0 0.00 0.00 0.00 67 1018.0
20260901001545 90 0 0.0 0.0 0.00 0.00 0.00 63 1018.0
20260901000045 92 0 0.0 0.0 0.00 0.00 0.00 58 1018.1
20260831234548 93 0 0.0 1.0 0.00 0.00 0.00 56 1018.1
20260831233045 93 96 0.0 1.0 0.00 0.00 0.00 56 1018.1
20260831231545 93 77 0.0 3.0 0.00 0.00 0.00 55 1018.1
20260831230048 94 71 1.0 3.0 0.00 0.00 0.00 54 1018.2
20260831224546 94 74 2.0 4.0 0.00 0.00 0.00 54 1018.2
20260831223044 95 108 2.0 4.0 0.00 0.00 0.00 53 1018.3
20260831221551 95 74 2.0 6.0 0.00 0.00 0.00 53 1018.4
20260831220101 95 72 2.0 4.0 0.00 0.00 0.00 54 1018.5
20260831214546 95 46 1.0 4.0 0.00 0.00 0.00 53 1018.6
20260831213042 94 73 2.0 5.0 0.00 0.00 0.00 56 1018.5
20260831211543 93 57 1.0 5.0 0.00 0.00 0.00 56 1018.5
20260831210045 95 71 1.0 3.0 0.00 0.00 0.00 53 1018.6
20260831204552 96 117 0.0 4.0 0.00 0.00 0.00 52 1018.7
20260831203046 95 329 2.0 6.0 0.00 0.00 0.00 54 1018.7
20260831201548 95 59 2.0 5.0 0.00 0.00 0.00 53 1019.1
20260831200053 95 30 3.0 8.0 0.00 0.00 0.00 54 1019.1
20260831194544 96 203 6.0 11.0 0.00 0.00 0.00 51 1019.1
20260831193044 95 310 3.0 7.0 0.00 0.00 0.00 56 1019.4
20260831191548 95 266 3.0 7.0 0.00 0.00 0.00 52 1019.6
20260831190104 95 199 3.0 10.0 0.00 0.00 0.00 54 1019.7
20260831184543 94 232 5.0 11.0 0.00 0.00 0.00 55 1019.9
20260831183043 92 233 1.0 5.0 0.00 0.00 0.00 56 1020.1
20260831181544 92 28 1.0 6.0 0.00 0.00 0.00 59 1020.3
20260831180047 92 288 3.0 5.0 0.00 0.00 0.00 57 1020.5
20260831174547 93 279 2.0 7.0 0.00 0.00 0.00 56 1020.8
20260831173046 93 186 2.0 7.0 0.00 0.00 0.00 57 1021.1
20260831171554 92 284 3.0 8.0 0.00 0.00 0.00 59 1021.2
20260831170046 92 289 2.0 8.0 0.00 0.00 0.00 60 1021.4
20260831164610 92 172 3.0 8.0 0.00 0.00 0.00 60 1021.4
20260831163044 91 210 3.0 9.0 0.00 0.00 0.00 61 1021.5
20260831161555 90 151 6.0 10.0 0.00 0.00 0.00 63 1021.5
20260831160048 90 13 1.0 6.0 0.00 0.00 0.00 66 1021.3
20260831154612 89 319 4.0 9.0 0.00 0.00 0.00 66 1021.5
20260831153057 88 170 3.0 8.0 0.00 0.00 0.00 67 1021.5
20260831151553 88 131 5.0 8.0 0.00 0.00 0.00 68 1021.3
20260831150049 87 222 4.0 9.0 0.00 0.00 0.00 69 1021.3
20260831144606 87 215 4.0 7.0 0.00 0.00 0.00 68 1021.2
20260831143057 86 0 0.0 2.0 0.00 0.00 0.00 71 1021.2
20260831141543 85 205 1.0 4.0 0.00 0.00 0.00 74 1021.3
20260831140051 83 0 1.0 3.0 0.00 0.00 0.00 77 1021.2